DW8626 Madrid ES current weather conditions

sailwx.info

Wind from 026

Air temperature 8.3° C
Dewpoint 4.5° C

Last reported at 2017-Mar-29 06:47 UTC.
Time now 2017-Mar-29 07:22 UTC

Location: N 40°29' W 003°43'.
View on Google Maps.

See reports from other nearby stations

  
Tides and Currents Weather Stations Pressure Air Temp Water Temp Dewpoint Dewpoint Depression Visibility Wind Speed Wind Dir Waves Ship Positions
date/time (UTC)wind fromknots sea level pressurealtimeterstation pressurevisibilityair tempwater tempwave heightnotes
2017-Mar-29 06:47 026 8.3
2017-Mar-29 06:32 026 7.8
2017-Mar-29 06:17 025 7.2
2017-Mar-29 06:02 026 7.2
2017-Mar-29 05:47 036 7.2
2017-Mar-29 05:32 015 7.2
2017-Mar-29 05:17 013 7.2
2017-Mar-29 05:02 082 7.2
2017-Mar-29 04:47 097 7.8
2017-Mar-29 04:32 086 7.8
2017-Mar-29 04:17 086 7.8
2017-Mar-29 04:02 084 8.3
2017-Mar-29 03:47 032 8.3
2017-Mar-29 03:32 031 7.8
2017-Mar-29 03:17 103 7.8
2017-Mar-29 03:02 103 8.3
2017-Mar-29 02:47 084 8.9
2017-Mar-29 02:32 084 8.9
2017-Mar-29 02:17 131 8.9
2017-Mar-29 01:47 087 8.9
2017-Mar-29 01:32 091 9.4
2017-Mar-29 01:17 091 9.4
2017-Mar-29 01:02 091 10.0
2017-Mar-29 00:47 082 10.0
2017-Mar-29 00:32 089 10.6
2017-Mar-29 00:17 089 10.6
2017-Mar-29 00:02 184 10.6
2017-Mar-28 23:47 184 11.1
2017-Mar-28 23:32 184 10.6
2017-Mar-28 23:17 184 11.7
2017-Mar-28 23:02 184 11.1
2017-Mar-28 22:47 184 11.1
2017-Mar-28 22:32 184 11.1
2017-Mar-28 22:17 184 11.1
2017-Mar-28 22:02 184 11.1
2017-Mar-28 21:47 184 11.7
2017-Mar-28 21:32 184 12.2
2017-Mar-28 21:17 184 12.8
2017-Mar-28 21:02 161 12.8
2017-Mar-28 20:47 252 13.3
2017-Mar-28 20:32 240 13.3
2017-Mar-28 20:17 225 13.3
2017-Mar-28 20:02 219 13.9
2017-Mar-28 19:47 224 13.9
2017-Mar-28 19:32 228 13.9
2017-Mar-28 19:17 243 14.4
2017-Mar-28 19:02 203 14.4
2017-Mar-28 18:47 203 15.0
2017-Mar-28 18:32 193 1 gusting 4 15.6
2017-Mar-28 18:17 166 0 gusting 4 16.1
2017-Mar-28 18:02 208 1 gusting 7 16.1
2017-Mar-28 17:47 212 4 gusting 8 16.1
2017-Mar-28 17:32 191 3 gusting 8 16.1
2017-Mar-28 17:17 252 0 gusting 6 16.7
2017-Mar-28 17:02 260 0 gusting 6 16.7
2017-Mar-28 16:47 210 4 gusting 10 16.7
2017-Mar-28 16:32 186 2 gusting 11 16.7
2017-Mar-28 16:17 299 16.7
2017-Mar-28 16:02 232 5 gusting 8 16.7
2017-Mar-28 15:47 239 5 gusting 13 16.7
2017-Mar-28 15:32 278 3 gusting 8 16.7
2017-Mar-28 15:17 288 0 gusting 6 16.7
2017-Mar-28 15:02 132 0 gusting 6 16.1
2017-Mar-28 14:47 205 4 gusting 10 16.7
2017-Mar-28 14:32 207 3 gusting 8 16.1
2017-Mar-28 14:17 091 16.7
2017-Mar-28 14:02 125 16.1
2017-Mar-28 13:47 141 1 gusting 6 16.7
2017-Mar-28 13:32 159 16.1
2017-Mar-28 13:17 176 15.6
2017-Mar-28 13:02 228 2 gusting 9 15.0
2017-Mar-28 12:47 158 2 gusting 9 15.6
2017-Mar-28 12:32 200 3 gusting 9 15.0
2017-Mar-28 12:17 153 3 gusting 8 15.0
2017-Mar-28 12:02 232 0 gusting 6 14.4
2017-Mar-28 11:47 183 3 gusting 6 14.4
2017-Mar-28 11:32 120 13.9
2017-Mar-28 11:17 198 13.3
2017-Mar-28 11:02 246 12.8
2017-Mar-28 10:47 169 13.3
2017-Mar-28 10:32 089 13.3
2017-Mar-28 10:17 222 12.8
2017-Mar-28 10:02 115 12.2
2017-Mar-28 09:47 193 12.2
2017-Mar-28 09:32 146 11.1
2017-Mar-28 09:17 117 11.1
2017-Mar-28 09:02 136 10.6
2017-Mar-28 08:47 219 9.4
2017-Mar-28 08:32 264 9.4
2017-Mar-28 08:17 016 8.9
2017-Mar-28 08:02 019 8.9
2017-Mar-28 07:47 310 8.9
2017-Mar-28 07:32 311 8.3
2017-Mar-28 07:17 226 8.3
2017-Mar-28 07:02 225 8.3
2017-Mar-28 06:47 225 8.3
2017-Mar-28 06:32 225 8.3
2017-Mar-28 06:17 307 8.3
2017-Mar-28 06:02 172 8.3
2017-Mar-28 05:47 169 8.3
2017-Mar-28 05:32 284 8.3
2017-Mar-28 05:17 284 8.3
2017-Mar-28 05:02 284 8.3
2017-Mar-28 04:47 284 8.3
2017-Mar-28 04:32 165 8.3
2017-Mar-28 04:17 238 8.3
2017-Mar-28 04:02 238 8.3
2017-Mar-28 03:47 238 7.8
2017-Mar-28 03:32 238 7.8
2017-Mar-28 03:17 238 7.8
2017-Mar-28 03:02 238 7.8
2017-Mar-28 02:47 238 7.8
2017-Mar-28 02:32 238 7.8
2017-Mar-28 02:17 238 8.3
2017-Mar-28 02:02 238 8.3
2017-Mar-28 01:47 238 8.3
2017-Mar-28 01:32 226 8.9
2017-Mar-28 01:17 257 8.3
2017-Mar-28 01:02 162 8.3
2017-Mar-28 00:47 162 8.3
2017-Mar-28 00:32 226 8.3
2017-Mar-28 00:17 226 8.3
2017-Mar-28 00:02 219 8.9
2017-Mar-27 23:47 259 8.9
2017-Mar-27 23:32 243 9.4
2017-Mar-27 23:17 200 9.4
2017-Mar-27 23:02 210 9.4
2017-Mar-27 22:47 238 9.4
2017-Mar-27 22:32 224 9.4
2017-Mar-27 22:17 194 10.0
2017-Mar-27 22:02 210 10.0
2017-Mar-27 21:47 217 10.0
2017-Mar-27 21:32 155 10.0
2017-Mar-27 21:17 207 10.0
2017-Mar-27 21:02 191 10.0
2017-Mar-27 20:47 164 2 gusting 6 10.6
2017-Mar-27 20:32 222 0 gusting 6 10.6
2017-Mar-27 20:17 177 2 gusting 6 10.6
2017-Mar-27 20:02 228 10.6
2017-Mar-27 19:47 190 11.1
2017-Mar-27 19:32 210 11.1
2017-Mar-27 19:17 198 11.1
2017-Mar-27 19:02 183 11.1
2017-Mar-27 18:47 238 1 gusting 6 11.1
2017-Mar-27 18:32 240 0 gusting 8 11.7
2017-Mar-27 18:17 245 3 gusting 9 12.2
2017-Mar-27 18:02 243 5 gusting 13 12.8
2017-Mar-27 17:47 233 6 gusting 11 12.8
2017-Mar-27 17:32 193 13.3
2017-Mar-27 17:17 205 5 gusting 10 13.3
2017-Mar-27 17:02 162 6 gusting 14 12.8
2017-Mar-27 16:47 232 6 gusting 13 12.8
2017-Mar-27 16:32 255 3 gusting 14 12.8
2017-Mar-27 16:17 194 8 gusting 12 12.2
2017-Mar-27 16:02 256 8 gusting 13 12.2
2017-Mar-27 15:47 231 3 gusting 11 12.2
2017-Mar-27 15:32 250 6 gusting 14 12.2
2017-Mar-27 15:17 193 6 gusting 14 12.2
2017-Mar-27 15:02 236 4 gusting 8 11.7
2017-Mar-27 14:47 158 6 gusting 14 11.7
2017-Mar-27 14:32 219 5 gusting 13 11.7
2017-Mar-27 14:17 224 8 gusting 14 11.1
2017-Mar-27 14:02 180 7 gusting 12 11.1
2017-Mar-27 13:47 179 6 gusting 12 10.6
2017-Mar-27 13:32 218 5 gusting 12 10.0
2017-Mar-27 13:17 233 3 gusting 13 10.0
2017-Mar-27 13:02 224 4 gusting 10 10.6
2017-Mar-27 12:47 203 4 gusting 13 10.6
2017-Mar-27 12:32 252 4 gusting 13 10.0
2017-Mar-27 12:17 213 6 gusting 13 10.0
2017-Mar-27 12:02 169 4 gusting 12 10.0
2017-Mar-27 11:47 231 3 gusting 8 10.0
2017-Mar-27 11:32 169 1 gusting 7 10.0
2017-Mar-27 11:17 238 2 gusting 5 8.9
2017-Mar-27 11:02 224 2 gusting 6 8.3
2017-Mar-27 10:47 159 8.3
2017-Mar-27 10:32 239 0 gusting 6 7.8
2017-Mar-27 10:17 238 5 gusting 9 7.8
2017-Mar-27 10:02 231 4 gusting 8 7.8
2017-Mar-27 09:47 221 3 gusting 7 7.8
2017-Mar-27 09:32 224 6 gusting 11 7.2
2017-Mar-27 09:17 236 7.2
2017-Mar-27 09:02 138 7.2
2017-Mar-27 08:47 198 6 gusting 13 7.2
2017-Mar-27 08:32 194 4 gusting 13 7.2
2017-Mar-27 08:17 232 3 gusting 15 6.7
2017-Mar-27 08:02 186 5 gusting 12 6.7
2017-Mar-27 07:47 217 7 gusting 13 6.7
2017-Mar-27 07:32 211 6 gusting 11 6.1
2017-Mar-27 07:17 200 9 gusting 13 6.1
2017-Mar-27 07:02 233 5 gusting 15 6.1